Location: Newark
(50.6972°N, 6.6253°E)
Time: 16:50:14
(UTC+00:00)

ISS - Visible Passes

Search period start: 18 November 2019 00:00
Search period end: 28 November 2019 00:00
Orbit: 412 x 421 km, 51.6° (Epoch: 18 November)

Date Brightness Start Highest point End Pass type
(mag) Time Alt. Az. Time Alt. Az. Time Alt. Az.
22 Nov -1.4 17:28:57 10° SSE 17:29:52 12° SSE 17:29:52 12° SSE visible
23 Nov -1.5 18:15:15 10° SW 18:16:31 20° SSW 18:16:31 20° SSW visible
24 Nov -2.4 17:27:12 10° SSW 17:30:04 26° SE 17:30:10 26° SE visible
25 Nov -1.8 16:39:24 10° S 16:41:47 18° SE 16:43:46 12° ESE visible
25 Nov -2.0 18:14:45 10° WSW 18:16:40 31° SW 18:16:40 31° SW visible
26 Nov -3.4 17:26:25 10° SW 17:29:40 49° SSE 17:30:11 44° ESE visible
26 Nov -0.2 19:03:00 10° W 19:03:05 11° W 19:03:05 11° W visible
27 Nov -2.7 16:38:11 10° SW 16:41:16 35° SSE 16:43:40 15° E visible
27 Nov -2.1 18:14:29 10° W 18:16:34 35° W 18:16:34 35° W visible
